date,time,SUV Intensity [MED/Hr],UV Index,Daily total [MED],Since Last [MED]
22/07/2022,00:10:43,0.001,0.0,0.0,0.0
22/07/2022,00:11:43,0.001,0.0,0.0,0.0
22/07/2022,00:12:43,0.001,0.0,0.0,0.0
22/07/2022,00:13:43,0.001,0.0,0.0,0.0
22/07/2022,00:14:43,0.001,0.0,0.0,0.0
22/07/2022,00:15:43,0.001,0.0,0.0,0.0
22/07/2022,00:16:43,0.001,0.0,0.0,0.0
22/07/2022,00:17:43,0.001,0.0,0.0,0.0
22/07/2022,00:18:43,0.001,0.0,0.0,0.0
22/07/2022,00:19:43,0.001,0.0,0.0,0.0
22/07/2022,00:20:51,0.001,0.0,0.0,0.0
22/07/2022,00:21:43,0.001,0.0,0.0,0.0
22/07/2022,00:22:43,0.001,0.0,0.0,0.0
22/07/2022,00:23:43,0.001,0.0,0.0,0.0
22/07/2022,00:24:43,0.001,0.0,0.0,0.0
22/07/2022,00:25:43,0.001,0.0,0.0,0.0
22/07/2022,00:26:43,0.001,0.0,0.0,0.0
22/07/2022,00:27:43,0.001,0.0,0.0,0.0
22/07/2022,00:28:43,0.001,0.0,0.0,0.0
22/07/2022,00:29:43,0.001,0.0,0.0,0.0
22/07/2022,00:30:44,0.001,0.0,0.0,0.0
22/07/2022,00:31:43,0.001,0.0,0.0,0.0
22/07/2022,00:32:43,0.001,0.0,0.0,0.0
22/07/2022,00:33:43,0.001,0.0,0.0,0.0
22/07/2022,00:34:43,0.001,0.0,0.0,0.0
22/07/2022,00:35:43,0.001,0.0,0.0,0.0
22/07/2022,00:36:43,0.001,0.0,0.0,0.0
22/07/2022,00:37:43,0.001,0.0,0.0,0.0
22/07/2022,00:38:51,0.001,0.0,0.0,0.0
22/07/2022,00:39:43,0.001,0.0,0.0,0.0
22/07/2022,00:40:43,0.001,0.0,0.0,0.0
22/07/2022,00:41:51,0.001,0.0,0.0,0.0
22/07/2022,00:42:43,0.001,0.0,0.0,0.0
22/07/2022,00:43:43,0.001,0.0,0.0,0.0
22/07/2022,00:44:51,0.001,0.0,0.0,0.0
22/07/2022,00:45:42,0.001,0.0,0.0,0.0
22/07/2022,00:46:43,0.001,0.0,0.0,0.0
22/07/2022,00:47:43,0.001,0.0,0.0,0.0
22/07/2022,00:48:43,0.001,0.0,0.0,0.0
22/07/2022,00:49:43,0.001,0.0,0.0,0.0
22/07/2022,00:50:43,0.001,0.0,0.0,0.0
22/07/2022,00:51:43,0.001,0.0,0.0,0.0
22/07/2022,00:52:43,0.001,0.0,0.0,0.0
22/07/2022,00:53:43,0.001,0.0,0.0,0.0
22/07/2022,00:54:43,0.001,0.0,0.0,0.0
22/07/2022,00:55:43,0.001,0.0,0.0,0.0
22/07/2022,00:56:43,0.001,0.0,0.0,0.0
22/07/2022,00:57:43,0.001,0.0,0.0,0.0
22/07/2022,00:58:43,0.001,0.0,0.0,0.0
22/07/2022,00:59:43,0.001,0.0,0.0,0.0
22/07/2022,01:00:43,0.001,0.0,0.0,0.0
22/07/2022,01:01:44,0.001,0.0,0.0,0.0
22/07/2022,01:02:51,0.001,0.0,0.0,0.0
22/07/2022,01:03:45,0.001,0.0,0.0,0.0
22/07/2022,01:04:43,0.001,0.0,0.0,0.0
22/07/2022,01:05:43,0.001,0.0,0.0,0.0
22/07/2022,01:06:43,0.001,0.0,0.0,0.0
22/07/2022,01:07:43,0.001,0.0,0.0,0.0
22/07/2022,01:08:43,0.001,0.0,0.0,0.0
22/07/2022,01:09:43,0.001,0.0,0.0,0.0
22/07/2022,01:10:43,-0.000,0.0,0.0,0.0
22/07/2022,01:12:00,0.001,0.0,0.0,0.0
22/07/2022,01:13:44,0.001,0.0,0.0,0.0
22/07/2022,01:14:43,0.001,0.0,0.0,0.0
22/07/2022,01:15:52,0.001,0.0,0.0,0.0
22/07/2022,01:16:43,0.001,0.0,0.0,0.0
22/07/2022,01:17:43,0.001,0.0,0.0,0.0
22/07/2022,01:18:43,0.001,0.0,0.0,0.0
22/07/2022,01:19:43,0.001,0.0,0.0,0.0
22/07/2022,01:20:44,0.001,0.0,0.0,0.0
22/07/2022,01:21:43,0.001,0.0,0.0,0.0
22/07/2022,01:22:43,0.001,0.0,0.0,0.0
22/07/2022,01:23:43,0.001,0.0,0.0,0.0
22/07/2022,01:24:43,0.001,0.0,0.0,0.0
22/07/2022,01:25:43,0.001,0.0,0.0,0.0
22/07/2022,01:26:43,0.001,0.0,0.0,0.0
22/07/2022,01:27:43,0.001,0.0,0.0,0.0
22/07/2022,01:28:43,0.001,0.0,0.0,0.0
22/07/2022,01:29:43,0.001,0.0,0.0,0.0
22/07/2022,01:30:43,0.001,0.0,0.0,0.0
22/07/2022,01:31:44,0.001,0.0,0.0,0.0
22/07/2022,01:32:43,0.001,0.0,0.0,0.0
22/07/2022,01:33:51,0.001,0.0,0.0,0.0
22/07/2022,01:34:43,0.001,0.0,0.0,0.0
22/07/2022,01:35:43,0.001,0.0,0.0,0.0
22/07/2022,01:36:51,0.001,0.0,0.0,0.0
22/07/2022,01:37:43,0.001,0.0,0.0,0.0
22/07/2022,01:38:43,0.001,0.0,0.0,0.0
22/07/2022,01:39:52,0.001,0.0,0.0,0.0
22/07/2022,01:40:43,0.001,0.0,0.0,0.0
22/07/2022,01:41:43,0.001,0.0,0.0,0.0
22/07/2022,01:42:44,0.001,0.0,0.0,0.0
22/07/2022,01:43:43,0.001,0.0,0.0,0.0
22/07/2022,01:44:43,0.001,0.0,0.0,0.0
22/07/2022,01:45:43,0.001,0.0,0.0,0.0
22/07/2022,01:46:43,0.001,0.0,0.0,0.0
22/07/2022,01:47:43,0.001,0.0,0.0,0.0
22/07/2022,01:48:43,0.001,0.0,0.0,0.0
22/07/2022,01:49:43,0.001,0.0,0.0,0.0
22/07/2022,01:50:55,-0.000,0.0,0.0,0.0
22/07/2022,01:52:44,0.001,0.0,0.0,0.0
22/07/2022,01:53:43,0.001,0.0,0.0,0.0
22/07/2022,01:54:51,0.001,0.0,0.0,0.0
22/07/2022,01:55:43,0.001,0.0,0.0,0.0
22/07/2022,01:56:43,0.001,0.0,0.0,0.0
22/07/2022,01:57:43,0.001,0.0,0.0,0.0
22/07/2022,01:58:43,0.001,0.0,0.0,0.0
22/07/2022,01:59:43,0.001,0.0,0.0,0.0
22/07/2022,02:00:43,0.001,0.0,0.0,0.0
22/07/2022,02:01:44,0.001,0.0,0.0,0.0
22/07/2022,02:02:43,0.001,0.0,0.0,0.0
22/07/2022,02:03:43,0.001,0.0,0.0,0.0
22/07/2022,02:04:44,0.001,0.0,0.0,0.0
22/07/2022,02:05:43,0.001,0.0,0.0,0.0
22/07/2022,02:06:44,0.001,0.0,0.0,0.0
22/07/2022,02:07:43,0.001,0.0,0.0,0.0
22/07/2022,02:08:43,0.001,0.0,0.0,0.0
22/07/2022,02:09:44,0.001,0.0,0.0,0.0
22/07/2022,02:10:43,0.001,0.0,0.0,0.0
22/07/2022,02:11:43,0.001,0.0,0.0,0.0
22/07/2022,02:12:43,0.001,0.0,0.0,0.0
22/07/2022,02:13:52,0.001,0.0,0.0,0.0
22/07/2022,02:14:43,0.001,0.0,0.0,0.0
22/07/2022,02:15:43,0.001,0.0,0.0,0.0
22/07/2022,02:16:43,0.001,0.0,0.0,0.0
22/07/2022,02:17:44,0.001,0.0,0.0,0.0
22/07/2022,02:18:43,0.001,0.0,0.0,0.0
22/07/2022,02:19:43,0.001,0.0,0.0,0.0
22/07/2022,02:20:43,0.001,0.0,0.0,0.0
22/07/2022,02:21:43,0.001,0.0,0.0,0.0
22/07/2022,02:22:43,0.001,0.0,0.0,0.0
22/07/2022,02:23:43,0.001,0.0,0.0,0.0
22/07/2022,02:24:43,0.001,0.0,0.0,0.0
22/07/2022,02:25:43,0.001,0.0,0.0,0.0
22/07/2022,02:26:43,0.001,0.0,0.0,0.0
22/07/2022,02:27:43,0.001,0.0,0.0,0.0
22/07/2022,02:28:51,0.001,0.0,0.0,0.0
22/07/2022,02:29:43,0.001,0.0,0.0,0.0
22/07/2022,02:30:43,0.001,0.0,0.0,0.0
22/07/2022,02:31:52,0.001,0.0,0.0,0.0
22/07/2022,02:32:43,0.001,0.0,0.0,0.0
22/07/2022,02:33:43,0.001,0.0,0.0,0.0
22/07/2022,02:34:52,0.001,0.0,0.0,0.0
22/07/2022,02:35:43,0.001,0.0,0.0,0.0
22/07/2022,02:36:43,0.001,0.0,0.0,0.0
22/07/2022,02:37:43,0.001,0.0,0.0,0.0
22/07/2022,02:38:43,0.001,0.0,0.0,0.0
22/07/2022,02:39:43,0.001,0.0,0.0,0.0
22/07/2022,02:40:43,0.001,0.0,0.0,0.0
22/07/2022,02:41:43,0.001,0.0,0.0,0.0
22/07/2022,02:42:43,0.001,0.0,0.0,0.0
22/07/2022,02:43:43,0.001,0.0,0.0,0.0
22/07/2022,02:44:44,0.001,0.0,0.0,0.0
22/07/2022,02:45:44,-0.000,0.0,0.0,0.0
22/07/2022,02:46:44,0.001,0.0,0.0,0.0
22/07/2022,02:47:52,0.001,0.0,0.0,0.0
22/07/2022,02:48:43,0.001,0.0,0.0,0.0
22/07/2022,02:49:43,0.001,0.0,0.0,0.0
22/07/2022,02:50:56,0.001,0.0,0.0,0.0
22/07/2022,02:52:44,0.001,0.0,0.0,0.0
22/07/2022,02:53:45,0.001,0.0,0.0,0.0
22/07/2022,02:54:43,0.001,0.0,0.0,0.0
22/07/2022,02:55:43,0.001,0.0,0.0,0.0
22/07/2022,02:56:43,0.001,0.0,0.0,0.0
22/07/2022,02:57:43,0.001,0.0,0.0,0.0
22/07/2022,02:58:43,0.001,0.0,0.0,0.0
22/07/2022,02:59:43,0.001,0.0,0.0,0.0
22/07/2022,03:00:43,0.001,0.0,0.0,0.0
22/07/2022,03:01:43,0.001,0.0,0.0,0.0
22/07/2022,03:02:51,0.001,0.0,0.0,0.0
22/07/2022,03:03:43,0.001,0.0,0.0,0.0
22/07/2022,03:04:43,0.001,0.0,0.0,0.0
22/07/2022,03:05:43,0.001,0.0,0.0,0.0
22/07/2022,03:06:44,0.001,0.0,0.0,0.0
22/07/2022,03:07:43,0.001,0.0,0.0,0.0
22/07/2022,03:08:52,0.001,0.0,0.0,0.0
22/07/2022,03:09:43,0.001,0.0,0.0,0.0
22/07/2022,03:10:44,0.001,0.0,0.0,0.0
22/07/2022,03:11:43,0.001,0.0,0.0,0.0
22/07/2022,03:12:43,0.001,0.0,0.0,0.0
22/07/2022,03:13:43,0.001,0.0,0.0,0.0
22/07/2022,03:14:43,0.001,0.0,0.0,0.0
22/07/2022,03:15:44,0.001,0.0,0.0,0.0
22/07/2022,03:16:43,0.001,0.0,0.0,0.0
22/07/2022,03:17:44,0.001,0.0,0.0,0.0
22/07/2022,03:18:43,0.001,0.0,0.0,0.0
22/07/2022,03:19:43,0.001,0.0,0.0,0.0
22/07/2022,03:20:56,0.001,0.0,0.0,0.0
22/07/2022,03:22:53,0.001,0.0,0.0,0.0
22/07/2022,03:23:42,0.001,0.0,0.0,0.0
22/07/2022,03:24:43,0.001,0.0,0.0,0.0
22/07/2022,03:25:44,0.001,0.0,0.0,0.0
22/07/2022,03:26:44,0.001,0.0,0.0,0.0
22/07/2022,03:27:43,0.001,0.0,0.0,0.0
22/07/2022,03:28:44,0.001,0.0,0.0,0.0
22/07/2022,03:29:43,0.001,0.0,0.0,0.0
22/07/2022,03:30:51,0.001,0.0,0.0,0.0
22/07/2022,03:31:43,0.001,0.0,0.0,0.0
22/07/2022,03:32:43,0.000,0.0,0.0,0.0
22/07/2022,03:33:43,0.001,0.0,0.0,0.0
22/07/2022,03:34:43,0.001,0.0,0.0,0.0
22/07/2022,03:35:44,0.001,0.0,0.0,0.0
22/07/2022,03:36:43,0.001,0.0,0.0,0.0
22/07/2022,03:37:34,0.001,0.0,0.0,0.0
22/07/2022,03:38:44,0.001,0.0,0.0,0.0
22/07/2022,03:39:44,0.001,0.0,0.0,0.0
22/07/2022,03:40:43,0.001,0.0,0.0,0.0
22/07/2022,03:41:43,0.001,0.0,0.0,0.0
22/07/2022,03:42:52,0.001,0.0,0.0,0.0
22/07/2022,03:43:44,0.001,0.0,0.0,0.0
22/07/2022,03:44:43,0.001,0.0,0.0,0.0
22/07/2022,03:45:51,0.002,0.0,0.0,0.0
22/07/2022,03:46:44,0.001,0.0,0.0,0.0
22/07/2022,03:47:43,0.001,0.0,0.0,0.0
22/07/2022,03:48:43,0.001,0.0,0.0,0.0
22/07/2022,03:49:44,0.001,0.0,0.0,0.0
22/07/2022,03:50:43,0.001,0.0,0.0,0.0
22/07/2022,03:51:43,0.001,0.0,0.0,0.0
22/07/2022,03:52:43,0.001,0.0,0.0,0.0
22/07/2022,03:53:43,0.001,0.0,0.0,0.0
22/07/2022,03:54:43,0.001,0.0,0.0,0.0
22/07/2022,03:55:43,0.001,0.0,0.0,0.0
22/07/2022,03:56:44,0.001,0.0,0.0,0.0
22/07/2022,03:57:43,0.001,0.0,0.0,0.0
22/07/2022,03:58:43,0.001,0.0,0.0,0.0
22/07/2022,03:59:44,0.001,0.0,0.0,0.0
22/07/2022,04:01:00,0.001,0.0,0.0,0.0
22/07/2022,04:02:44,0.001,0.0,0.0,0.0
22/07/2022,04:03:43,0.001,0.0,0.0,0.0
22/07/2022,04:04:43,0.001,0.0,0.0,0.0
22/07/2022,04:05:43,0.001,0.0,0.0,0.0
22/07/2022,04:06:44,0.002,0.0,0.0,0.0
22/07/2022,04:07:43,0.001,0.0,0.0,0.0
22/07/2022,04:08:43,0.002,0.0,0.0,0.0
22/07/2022,04:09:43,0.002,0.0,0.0,0.0
22/07/2022,04:10:44,0.002,0.0,0.0,0.0
22/07/2022,04:11:43,0.002,0.0,0.0,0.0
22/07/2022,04:12:43,0.001,0.0,0.0,0.0
22/07/2022,04:13:59,0.001,0.0,0.0,0.0
22/07/2022,04:15:44,0.002,0.0,0.0,0.0
22/07/2022,04:16:44,0.002,0.0,0.0,0.0
22/07/2022,04:17:43,0.002,0.0,0.0,0.0
22/07/2022,04:19:00,0.002,0.0,0.0,0.0
22/07/2022,04:20:44,0.002,0.0,0.0,0.0
22/07/2022,04:21:44,0.002,0.0,0.0,0.0
22/07/2022,04:22:51,0.001,0.0,0.0,0.0
22/07/2022,04:23:43,0.001,0.0,0.0,0.0
22/07/2022,04:24:43,0.003,0.0,0.0,0.0
22/07/2022,04:25:52,0.002,0.0,0.0,0.0
22/07/2022,04:26:43,0.002,0.0,0.0,0.0
22/07/2022,04:27:44,0.002,0.0,0.0,0.0
22/07/2022,04:28:43,0.001,0.0,0.0,0.0
22/07/2022,04:29:43,0.003,0.0,0.0,0.0
22/07/2022,04:30:44,0.002,0.0,0.0,0.0
22/07/2022,04:31:43,0.002,0.0,0.0,0.0
22/07/2022,04:32:43,0.002,0.0,0.0,0.0
22/07/2022,04:33:44,0.001,0.0,0.0,0.0
22/07/2022,04:34:43,0.003,0.0,0.0,0.0
22/07/2022,04:35:43,0.002,0.0,0.0,0.0
22/07/2022,04:36:43,0.002,0.0,0.0,0.0
22/07/2022,04:37:44,0.002,0.0,0.0,0.0
22/07/2022,04:38:43,0.003,0.0,0.0,0.0
22/07/2022,04:39:43,0.003,0.0,0.0,0.0
22/07/2022,04:40:44,0.002,0.0,0.0,0.0
22/07/2022,04:41:51,0.002,0.0,0.0,0.0
22/07/2022,04:42:44,0.002,0.0,0.0,0.0
22/07/2022,04:43:43,0.002,0.0,0.0,0.0
22/07/2022,04:44:44,0.002,0.0,0.0,0.0
22/07/2022,04:45:43,0.003,0.0,0.0,0.0
22/07/2022,04:46:44,0.004,0.0,0.0,0.0
22/07/2022,04:47:43,0.003,0.0,0.0,0.0
22/07/2022,04:48:43,0.003,0.0,0.0,0.0
22/07/2022,04:49:44,0.003,0.0,0.0,0.0
22/07/2022,04:50:43,0.003,0.0,0.0,0.0
22/07/2022,04:51:43,0.003,0.0,0.0,0.0
22/07/2022,04:52:43,0.003,0.0,0.0,0.0
22/07/2022,04:53:43,0.002,0.0,0.0,0.0
22/07/2022,04:54:44,0.003,0.0,0.0,0.0
22/07/2022,04:55:43,0.004,0.0,0.0,0.0
22/07/2022,04:56:52,0.004,0.0,0.0,0.0
22/07/2022,04:57:45,0.004,0.0,0.0,0.0
22/07/2022,04:58:44,0.004,0.0,0.0,0.0
22/07/2022,04:59:43,0.005,0.0,0.0,0.0
22/07/2022,05:00:43,0.005,0.0,0.0,0.0
22/07/2022,05:01:44,0.006,0.0,0.0,0.0
22/07/2022,05:02:44,0.006,0.0,0.0,0.0
22/07/2022,05:03:43,0.006,0.0,0.0,0.0
22/07/2022,05:04:43,0.006,0.0,0.0,0.0
22/07/2022,05:05:43,0.007,0.0,0.0,0.0
22/07/2022,05:06:43,0.006,0.0,0.0,0.0
22/07/2022,05:07:43,0.007,0.0,0.0,0.0
22/07/2022,05:08:44,0.007,0.0,0.001,0.001
22/07/2022,05:09:43,0.005,0.0,0.001,0.0
22/07/2022,05:10:43,0.006,0.0,0.001,0.0
22/07/2022,05:11:44,0.006,0.0,0.001,0.0
22/07/2022,05:12:52,0.007,0.0,0.001,0.0
22/07/2022,05:13:43,0.006,0.0,0.001,0.0
22/07/2022,05:14:43,0.008,0.0,0.001,0.0
22/07/2022,05:15:44,0.008,0.0,0.001,0.0
22/07/2022,05:16:43,0.009,0.0,0.001,0.0
22/07/2022,05:17:44,0.009,0.0,0.002,0.001
22/07/2022,05:18:43,0.010,0.0,0.002,0.0
22/07/2022,05:19:43,0.010,0.0,0.002,0.0
22/07/2022,05:20:44,0.011,0.0,0.002,0.0
22/07/2022,05:22:00,0.012,0.0,0.002,0.0
22/07/2022,05:23:44,0.013,0.0,0.003,0.001
22/07/2022,05:24:51,0.014,0.0,0.003,0.0
22/07/2022,05:25:43,0.014,0.0,0.003,0.0
22/07/2022,05:26:44,0.013,0.0,0.003,0.0
22/07/2022,05:27:43,0.013,0.0,0.004,0.001
22/07/2022,05:28:52,0.013,0.0,0.004,0.0
22/07/2022,05:29:43,0.013,0.0,0.004,0.0
22/07/2022,05:30:43,0.012,0.0,0.004,0.0
22/07/2022,05:31:43,0.013,0.0,0.004,0.0
22/07/2022,05:32:43,0.013,0.0,0.005,0.001
22/07/2022,05:33:43,0.014,0.0,0.005,0.0
22/07/2022,05:34:44,0.014,0.0,0.005,0.0
22/07/2022,05:35:43,0.015,0.0,0.005,0.0
22/07/2022,05:36:43,0.016,0.0,0.006,0.001
22/07/2022,05:37:52,0.016,0.0,0.006,0.0
22/07/2022,05:38:43,0.017,0.0,0.006,0.0
22/07/2022,05:39:43,0.018,0.0,0.006,0.0
22/07/2022,05:40:52,0.020,0.0,0.007,0.001
22/07/2022,05:41:43,0.021,0.0,0.007,0.0
22/07/2022,05:42:44,0.021,0.0,0.007,0.0
22/07/2022,05:43:52,0.022,0.0,0.008,0.001
22/07/2022,05:44:43,0.022,0.0,0.008,0.0
22/07/2022,05:45:43,0.023,0.0,0.009,0.001
22/07/2022,05:46:43,0.025,0.0,0.009,0.0
22/07/2022,05:47:43,0.026,0.0,0.009,0.0
22/07/2022,05:48:44,0.028,0.0,0.01,0.001
22/07/2022,05:49:44,0.030,0.0,0.01,0.0
22/07/2022,05:50:44,0.032,0.0,0.011,0.001
22/07/2022,05:51:35,0.034,0.0,0.011,0.0
22/07/2022,05:52:44,0.037,0.0,0.012,0.001
22/07/2022,05:53:44,0.037,0.0,0.013,0.001
22/07/2022,05:54:43,0.040,0.0,0.013,0.0
22/07/2022,05:55:43,0.042,0.0,0.014,0.001
22/07/2022,05:56:52,0.042,0.0,0.015,0.001
22/07/2022,05:57:43,0.043,0.0,0.015,0.0
22/07/2022,05:58:43,0.044,0.0,0.016,0.001
22/07/2022,05:59:44,0.045,0.0,0.017,0.001
22/07/2022,06:00:43,0.047,0.0,0.018,0.001
22/07/2022,06:01:44,0.048,0.0,0.018,0.0
22/07/2022,06:02:51,0.050,0.0,0.019,0.001
22/07/2022,06:03:44,0.052,0.0,0.02,0.001
22/07/2022,06:04:43,0.055,0.0,0.021,0.001
22/07/2022,06:05:44,0.057,0.0,0.022,0.001
22/07/2022,06:06:43,0.059,0.0,0.023,0.001
22/07/2022,06:07:43,0.061,0.0,0.024,0.001
22/07/2022,06:08:44,0.064,0.0,0.025,0.001
22/07/2022,06:09:43,0.067,0.0,0.026,0.001
22/07/2022,06:10:43,0.069,0.0,0.027,0.001
22/07/2022,06:11:52,0.072,0.0,0.028,0.001
22/07/2022,06:12:43,0.075,0.0,0.029,0.001
22/07/2022,06:13:43,0.078,0.0,0.031,0.002
22/07/2022,06:14:43,0.081,0.0,0.032,0.001
22/07/2022,06:15:45,0.082,0.0,0.033,0.001
22/07/2022,06:16:43,0.084,0.0,0.035,0.002
22/07/2022,06:17:52,0.085,0.0,0.036,0.001
22/07/2022,06:18:43,0.085,0.0,0.038,0.002
22/07/2022,06:19:44,0.085,0.0,0.039,0.001
22/07/2022,06:20:43,0.087,0.0,0.04,0.001
22/07/2022,06:21:43,0.090,0.0,0.042,0.002
22/07/2022,06:22:44,0.091,0.0,0.043,0.001
22/07/2022,06:23:44,0.093,0.0,0.045,0.002
22/07/2022,06:24:44,0.093,0.0,0.047,0.002
22/07/2022,06:25:43,0.092,0.0,0.048,0.001
22/07/2022,06:26:43,0.091,0.0,0.05,0.002
22/07/2022,06:27:52,0.090,0.0,0.051,0.001
22/07/2022,06:28:42,0.089,0.0,0.053,0.002
22/07/2022,06:29:44,0.088,0.0,0.054,0.001
22/07/2022,06:30:43,0.086,0.0,0.056,0.002
22/07/2022,06:31:44,0.085,0.0,0.057,0.001
22/07/2022,06:32:43,0.085,0.0,0.058,0.001
22/07/2022,06:33:45,0.085,0.0,0.06,0.002
22/07/2022,06:34:44,0.084,0.0,0.061,0.001
22/07/2022,06:35:43,0.085,0.0,0.063,0.002
22/07/2022,06:36:44,0.088,0.0,0.064,0.001
22/07/2022,06:37:44,0.093,0.0,0.066,0.002
22/07/2022,06:38:43,0.097,0.0,0.067,0.001
22/07/2022,06:39:44,0.101,0.0,0.069,0.002
22/07/2022,06:40:43,0.104,0.0,0.071,0.002
22/07/2022,06:41:43,0.107,0.0,0.072,0.001
22/07/2022,06:42:52,0.111,0.0,0.074,0.002
22/07/2022,06:43:44,0.114,0.0,0.076,0.002
22/07/2022,06:44:44,0.119,0.0,0.078,0.002
22/07/2022,06:45:43,0.124,0.0,0.08,0.002
22/07/2022,06:46:52,0.124,0.0,0.082,0.002
22/07/2022,06:47:43,0.123,0.0,0.084,0.002
22/07/2022,06:48:52,0.124,0.0,0.086,0.002
22/07/2022,06:49:43,0.122,0.0,0.088,0.002
22/07/2022,06:50:43,0.122,0.0,0.09,0.002
22/07/2022,06:51:44,0.122,0.0,0.092,0.002
22/07/2022,06:52:43,0.125,0.0,0.094,0.002
22/07/2022,06:53:43,0.128,0.0,0.096,0.002
22/07/2022,06:54:44,0.130,0.0,0.099,0.003
22/07/2022,06:55:43,0.134,0.0,0.101,0.002
22/07/2022,06:56:44,0.137,0.0,0.103,0.002
22/07/2022,06:57:44,0.137,0.0,0.105,0.002
22/07/2022,06:58:44,0.134,0.0,0.108,0.003
22/07/2022,06:59:43,0.128,0.0,0.11,0.002
22/07/2022,07:00:43,0.117,0.0,0.112,0.002
22/07/2022,07:01:52,0.103,0.0,0.114,0.002
22/07/2022,07:02:43,0.094,0.0,0.115,0.001
22/07/2022,07:03:44,0.086,0.0,0.117,0.002
22/07/2022,07:04:54,0.081,0.0,0.118,0.001
22/07/2022,07:06:44,0.078,0.0,0.121,0.003
22/07/2022,07:07:44,0.076,0.0,0.122,0.001
22/07/2022,07:08:43,0.073,0.0,0.123,0.001
22/07/2022,07:09:44,0.070,0.0,0.124,0.001
22/07/2022,07:10:51,0.074,0.0,0.126,0.002
22/07/2022,07:11:44,0.080,0.0,0.127,0.001
22/07/2022,07:12:44,0.088,0.0,0.128,0.001
22/07/2022,07:13:43,0.096,0.0,0.13,0.002
22/07/2022,07:14:52,0.106,0.0,0.132,0.002
22/07/2022,07:15:43,0.109,0.0,0.133,0.001
22/07/2022,07:16:43,0.115,0.0,0.135,0.002
22/07/2022,07:17:52,0.123,0.0,0.137,0.002
22/07/2022,07:18:44,0.128,0.0,0.139,0.002
22/07/2022,07:19:43,0.129,0.0,0.141,0.002
22/07/2022,07:20:44,0.128,0.0,0.144,0.003
22/07/2022,07:21:43,0.124,0.0,0.146,0.002
22/07/2022,07:22:43,0.122,0.0,0.148,0.002
22/07/2022,07:23:44,0.121,0.0,0.15,0.002
22/07/2022,07:24:44,0.123,0.0,0.152,0.002
22/07/2022,07:25:44,0.126,0.0,0.154,0.002
22/07/2022,07:26:44,0.128,0.0,0.156,0.002
22/07/2022,07:27:45,0.129,0.0,0.158,0.002
22/07/2022,07:28:44,0.131,0.0,0.16,0.002
22/07/2022,07:29:44,0.134,0.0,0.163,0.003
22/07/2022,07:30:44,0.142,0.0,0.165,0.002
22/07/2022,07:31:44,0.150,0.0,0.167,0.002
22/07/2022,07:32:52,0.159,0.0,0.17,0.003
22/07/2022,07:33:43,0.166,0.0,0.173,0.003
22/07/2022,07:34:43,0.177,0.0,0.175,0.002
22/07/2022,07:35:44,0.192,0.0,0.178,0.003
22/07/2022,07:36:43,0.208,0.0,0.182,0.004
22/07/2022,07:37:43,0.219,1.0,0.185,0.003
22/07/2022,07:38:44,0.222,1.0,0.189,0.004
22/07/2022,07:39:44,0.217,0.0,0.193,0.004
22/07/2022,07:40:44,0.207,0.0,0.196,0.003
22/07/2022,07:41:43,0.204,0.0,0.2,0.004
22/07/2022,07:42:43,0.203,0.0,0.203,0.003
22/07/2022,07:43:51,0.202,0.0,0.207,0.004
22/07/2022,07:44:43,0.202,0.0,0.21,0.003
22/07/2022,07:45:52,0.197,0.0,0.214,0.004
22/07/2022,07:46:44,0.197,0.0,0.216,0.002
22/07/2022,07:47:44,0.200,0.0,0.22,0.004
22/07/2022,07:48:52,0.196,0.0,0.223,0.003
22/07/2022,07:49:43,0.189,0.0,0.226,0.003
22/07/2022,07:50:43,0.179,0.0,0.229,0.003
22/07/2022,07:51:52,0.168,0.0,0.233,0.004
22/07/2022,07:52:44,0.163,0.0,0.235,0.002
22/07/2022,07:53:44,0.163,0.0,0.238,0.003
22/07/2022,07:54:43,0.177,0.0,0.24,0.002
22/07/2022,07:55:44,0.194,0.0,0.244,0.004
22/07/2022,07:56:44,0.221,1.0,0.247,0.003
22/07/2022,07:57:44,0.250,1.0,0.251,0.004
22/07/2022,07:58:44,0.277,1.0,0.255,0.004
22/07/2022,07:59:43,0.297,1.0,0.26,0.005
22/07/2022,08:00:43,0.308,1.0,0.265,0.005
22/07/2022,08:01:52,0.309,1.0,0.271,0.006
22/07/2022,08:02:46,0.301,1.0,0.276,0.005
22/07/2022,08:03:44,0.293,1.0,0.28,0.004
22/07/2022,08:04:52,0.292,1.0,0.286,0.006
22/07/2022,08:05:43,0.291,1.0,0.29,0.004
22/07/2022,08:06:45,0.297,1.0,0.295,0.005
22/07/2022,08:07:44,0.315,1.0,0.3,0.005
22/07/2022,08:08:44,0.331,1.0,0.306,0.006
22/07/2022,08:09:44,0.346,1.0,0.311,0.005
22/07/2022,08:10:44,0.348,1.0,0.317,0.006
22/07/2022,08:11:43,0.355,1.0,0.323,0.006
22/07/2022,08:12:43,0.361,1.0,0.329,0.006
22/07/2022,08:13:44,0.362,1.0,0.335,0.006
22/07/2022,08:14:43,0.366,1.0,0.341,0.006
22/07/2022,08:15:44,0.374,1.0,0.347,0.006
22/07/2022,08:16:52,0.382,1.0,0.354,0.007
22/07/2022,08:17:44,0.388,1.0,0.36,0.006
22/07/2022,08:18:44,0.389,1.0,0.366,0.006
22/07/2022,08:19:45,0.394,1.0,0.373,0.007
22/07/2022,08:20:44,0.410,1.0,0.379,0.006
22/07/2022,08:21:43,0.429,1.0,0.386,0.007
22/07/2022,08:22:46,0.440,1.0,0.394,0.008
22/07/2022,08:23:44,0.437,1.0,0.401,0.007
22/07/2022,08:24:44,0.431,1.0,0.408,0.007
22/07/2022,08:25:43,0.449,1.0,0.415,0.007
22/07/2022,08:26:52,0.431,1.0,0.424,0.009
22/07/2022,08:27:43,0.431,1.0,0.43,0.006
22/07/2022,08:28:43,0.444,1.0,0.437,0.007
22/07/2022,08:29:52,0.468,1.0,0.446,0.009
22/07/2022,08:30:43,0.497,1.0,0.453,0.007
22/07/2022,08:31:44,0.544,1.0,0.462,0.009
22/07/2022,08:32:52,0.627,1.0,0.473,0.011
22/07/2022,08:33:43,0.631,1.0,0.482,0.009
22/07/2022,08:34:44,0.643,1.0,0.492,0.01
22/07/2022,08:35:46,0.700,2.0,0.504,0.012
22/07/2022,08:36:44,0.784,2.0,0.516,0.012
22/07/2022,08:37:43,0.715,2.0,0.529,0.013
22/07/2022,08:38:44,0.658,2.0,0.54,0.011
22/07/2022,08:39:45,0.603,1.0,0.551,0.011
22/07/2022,08:40:43,0.553,1.0,0.561,0.01
22/07/2022,08:41:44,0.554,1.0,0.57,0.009
22/07/2022,08:42:52,0.500,1.0,0.58,0.01
22/07/2022,08:43:44,0.454,1.0,0.587,0.007
22/07/2022,08:44:43,0.410,1.0,0.594,0.007
22/07/2022,08:45:44,0.375,1.0,0.601,0.007
22/07/2022,08:46:43,0.348,1.0,0.607,0.006
22/07/2022,08:47:43,0.339,1.0,0.612,0.005
22/07/2022,08:48:44,0.346,1.0,0.618,0.006
22/07/2022,08:49:43,0.371,1.0,0.624,0.006
22/07/2022,08:50:44,0.417,1.0,0.631,0.007
22/07/2022,08:51:44,0.469,1.0,0.638,0.007
22/07/2022,08:52:44,0.522,1.0,0.646,0.008
22/07/2022,08:53:44,0.550,1.0,0.655,0.009
22/07/2022,08:54:44,0.586,1.0,0.665,0.01
22/07/2022,08:55:44,0.648,1.0,0.675,0.01
22/07/2022,08:56:44,0.778,2.0,0.687,0.012
22/07/2022,08:57:43,0.708,2.0,0.699,0.012
22/07/2022,08:58:52,0.742,2.0,0.714,0.015
22/07/2022,08:59:44,0.706,2.0,0.724,0.01
22/07/2022,09:00:44,0.886,2.0,0.737,0.013
22/07/2022,09:01:52,0.857,2.0,0.753,0.016
22/07/2022,09:02:44,0.779,2.0,0.765,0.012
22/07/2022,09:03:44,0.762,2.0,0.777,0.012
22/07/2022,09:04:44,0.773,2.0,0.79,0.013
22/07/2022,09:05:44,0.872,2.0,0.803,0.013
22/07/2022,09:06:44,0.955,2.0,0.819,0.016
22/07/2022,09:07:44,0.825,2.0,0.834,0.015
22/07/2022,09:08:43,0.869,2.0,0.848,0.014
22/07/2022,09:09:44,0.747,2.0,0.862,0.014
22/07/2022,09:10:44,0.718,2.0,0.874,0.012
22/07/2022,09:11:44,0.744,2.0,0.886,0.012
22/07/2022,09:12:44,0.894,2.0,0.9,0.014
22/07/2022,09:13:44,0.811,2.0,0.914,0.014
22/07/2022,09:14:44,0.814,2.0,0.927,0.013
22/07/2022,09:15:44,0.865,2.0,0.942,0.015
22/07/2022,09:16:44,0.927,2.0,0.957,0.015
22/07/2022,09:54:12,0.652,1.0,1.449,0.492
22/07/2022,09:55:45,0.729,2.0,1.466,0.017
22/07/2022,09:56:45,0.766,2.0,1.479,0.013
22/07/2022,09:57:44,0.708,2.0,1.491,0.012
22/07/2022,09:58:43,0.636,1.0,1.502,0.011
22/07/2022,09:59:44,0.585,1.0,1.513,0.011
22/07/2022,10:00:44,0.534,1.0,1.522,0.009
22/07/2022,10:01:44,0.489,1.0,1.53,0.008
22/07/2022,10:02:44,0.450,1.0,1.538,0.008
22/07/2022,10:03:52,0.438,1.0,1.547,0.009
22/07/2022,10:04:44,0.462,1.0,1.553,0.006
22/07/2022,10:05:43,0.527,1.0,1.561,0.008
22/07/2022,10:06:53,0.628,1.0,1.572,0.011
22/07/2022,10:07:44,0.693,2.0,1.582,0.01
22/07/2022,10:08:44,0.762,2.0,1.594,0.012
22/07/2022,10:09:44,0.825,2.0,1.607,0.013
22/07/2022,10:10:44,0.894,2.0,1.622,0.015
22/07/2022,10:11:44,0.910,2.0,1.637,0.015
22/07/2022,10:12:44,0.937,2.0,1.652,0.015
22/07/2022,10:13:45,0.999,2.0,1.668,0.016
22/07/2022,10:14:44,1.013,2.0,1.686,0.018
22/07/2022,10:15:44,1.052,2.0,1.703,0.017
22/07/2022,10:16:52,1.286,3.0,1.726,0.023
22/07/2022,10:17:44,1.307,3.0,1.744,0.018
22/07/2022,10:18:44,1.486,3.0,1.768,0.024
22/07/2022,10:19:52,1.333,3.0,1.794,0.026
22/07/2022,10:20:44,1.196,3.0,1.812,0.018
22/07/2022,10:21:44,1.201,3.0,1.832,0.02
22/07/2022,10:22:44,1.321,3.0,1.852,0.02
22/07/2022,10:23:44,1.368,3.0,1.875,0.023
22/07/2022,10:24:44,1.261,3.0,1.897,0.022
22/07/2022,10:25:45,1.094,3.0,1.917,0.02
22/07/2022,10:26:44,1.002,2.0,1.934,0.017
22/07/2022,10:27:44,0.963,2.0,1.951,0.017
22/07/2022,10:28:44,0.921,2.0,1.966,0.015
22/07/2022,10:29:44,0.890,2.0,1.981,0.015
22/07/2022,10:30:44,0.886,2.0,1.996,0.015
22/07/2022,10:31:44,0.902,2.0,2.011,0.015
22/07/2022,10:32:44,0.937,2.0,2.026,0.015
22/07/2022,10:33:44,1.109,3.0,2.043,0.017
22/07/2022,10:34:44,1.206,3.0,2.063,0.02
22/07/2022,10:35:44,1.204,3.0,2.083,0.02
22/07/2022,10:36:44,1.226,3.0,2.103,0.02
22/07/2022,10:37:44,1.165,3.0,2.124,0.021
22/07/2022,10:38:44,1.246,3.0,2.144,0.02
22/07/2022,10:39:44,1.196,3.0,2.163,0.019
22/07/2022,10:40:53,1.021,2.0,2.184,0.021
22/07/2022,10:41:44,1.015,2.0,2.199,0.015
22/07/2022,10:42:44,1.026,2.0,2.216,0.017
22/07/2022,10:43:44,0.987,2.0,2.232,0.016
22/07/2022,10:44:44,0.983,2.0,2.249,0.017
22/07/2022,10:45:44,0.986,2.0,2.265,0.016
22/07/2022,10:46:44,0.990,2.0,2.282,0.017
22/07/2022,10:47:44,1.031,2.0,2.299,0.017
22/07/2022,10:48:44,1.210,3.0,2.317,0.018
22/07/2022,10:49:45,1.593,4.0,2.337,0.02
22/07/2022,10:50:44,1.804,4.0,2.366,0.029
22/07/2022,10:51:45,1.836,4.0,2.396,0.03
22/07/2022,10:52:44,1.398,3.0,2.424,0.028
22/07/2022,10:53:52,1.368,3.0,2.45,0.026
22/07/2022,10:55:00,1.625,4.0,2.479,0.029
22/07/2022,10:56:44,1.314,3.0,2.519,0.04